Previsão horária em Cerkovische

Hoje, 31 Julho, Sábado

Tempo Temperatura Precipitação Vento Pressão Humidade
00:00 +17°C° 0 mm 3 m/s 739 mmHg 72%
01:00 +17°C° 0 mm 3 m/s 739 mmHg 73%
02:00 +16°C° 0 mm 3 m/s 739 mmHg 74%
03:00 +16°C° 0 mm 3 m/s 739 mmHg 74%
04:00 +16°C° 0 mm 3 m/s 739 mmHg 74%
05:00 +15°C° 0 mm 4 m/s 739 mmHg 74%
06:00 +17°C° 0 mm 4 m/s 739 mmHg 67%
07:00 +19°C° 0 mm 5 m/s 739 mmHg 60%
08:00 +21°C° 0 mm 5 m/s 739 mmHg 53%
09:00 +22°C° 0 mm 5 m/s 739 mmHg 50%
10:00 +23°C° 0 mm 6 m/s 739 mmHg 47%
11:00 +26°C° 0 mm 6 m/s 740 mmHg 44%
12:00 +26°C° 0 mm 5 m/s 740 mmHg 44%
13:00 +26°C° 0 mm 5 m/s 740 mmHg 45%
14:00 +26°C° 0 mm 4 m/s 740 mmHg 46%
15:00 +26°C° 0 mm 4 m/s 740 mmHg 45%
16:00 +26°C° 0 mm 4 m/s 740 mmHg 45%
17:00 +26°C° 0 mm 3 m/s 741 mmHg 45%
18:00 +25°C° 0 mm 3 m/s 741 mmHg 51%
19:00 +23°C° 0 mm 2 m/s 741 mmHg 58%
20:00 +21°C° 0 mm 1 m/s 741 mmHg 65%
21:00 +20°C° 0 mm 1 m/s 741 mmHg 67%
22:00 +19°C° 0 mm 1 m/s 741 mmHg 69%
23:00 +18°C° 0 mm 1 m/s 742 mmHg 72%

Amanhã, 1 Agosto, Domingo

Tempo Temperatura Precipitação Vento Pressão Humidade
00:00 +17°C° 0 mm 2 m/s 742 mmHg 73%
01:00 +17°C° 0 mm 2 m/s 742 mmHg 74%
02:00 +17°C° 0 mm 2 m/s 741 mmHg 75%
03:00 +17°C° 0.7 mm 2 m/s 741 mmHg 82%
04:00 +17°C° 0.7 mm 2 m/s 741 mmHg 90%
05:00 +16°C° 0.7 mm 2 m/s 741 mmHg 97%
06:00 +17°C° 0.4 mm 2 m/s 741 mmHg 97%
07:00 +17°C° 0.4 mm 2 m/s 741 mmHg 97%
08:00 +18°C° 0.4 mm 3 m/s 741 mmHg 97%
09:00 +20°C° 0.1 mm 3 m/s 741 mmHg 86%
10:00 +22°C° 0.1 mm 3 m/s 741 mmHg 74%
11:00 +25°C° 0.1 mm 4 m/s 741 mmHg 63%
12:00 +26°C° 0 mm 4 m/s 741 mmHg 54%
13:00 +27°C° 0 mm 5 m/s 741 mmHg 45%
14:00 +28°C° 0 mm 5 m/s 741 mmHg 36%
15:00 +28°C° 0 mm 5 m/s 741 mmHg 38%
16:00 +28°C° 0 mm 4 m/s 741 mmHg 40%
17:00 +27°C° 0 mm 4 m/s 741 mmHg 42%
18:00 +25°C° 0 mm 3 m/s 742 mmHg 49%
19:00 +22°C° 0 mm 3 m/s 742 mmHg 57%
20:00 +20°C° 0 mm 2 m/s 742 mmHg 65%
21:00 +19°C° 0 mm 2 m/s 742 mmHg 67%
22:00 +18°C° 0 mm 2 m/s 742 mmHg 69%
23:00 +19°C° 0 mm 1 m/s 742 mmHg 71%

Depois de amanhã, 2 Agosto, Segunda-feira

Tempo Temperatura Precipitação Vento Pressão Humidade
00:00 +19°C° 0 mm 1 m/s 742 mmHg 71%
01:00 +19°C° 0 mm 1 m/s 742 mmHg 70%
02:00 +20°C° 0 mm 1 m/s 742 mmHg 69%
03:00 +19°C° 0 mm 1 m/s 741 mmHg 71%
04:00 +19°C° 0 mm 1 m/s 741 mmHg 74%
05:00 +18°C° 0 mm 1 m/s 741 mmHg 76%
06:00 +19°C° 0.1 mm 1 m/s 741 mmHg 75%
07:00 +20°C° 0.1 mm 1 m/s 740 mmHg 73%
08:00 +20°C° 0.1 mm 2 m/s 740 mmHg 72%
09:00 +19°C° 1 mm 2 m/s 740 mmHg 81%
10:00 +20°C° 1 mm 1 m/s 739 mmHg 89%
11:00 +19°C° 1 mm 1 m/s 739 mmHg 98%
12:00 +19°C° 1.3 mm 2 m/s 738 mmHg 95%
13:00 +20°C° 1.3 mm 3 m/s 738 mmHg 92%
14:00 +21°C° 1.3 mm 3 m/s 737 mmHg 89%
15:00 +21°C° 0.4 mm 3 m/s 737 mmHg 91%
16:00 +20°C° 0.4 mm 3 m/s 737 mmHg 92%
17:00 +19°C° 0.4 mm 3 m/s 737 mmHg 93%
18:00 +18°C° 0 mm 3 m/s 737 mmHg 94%
19:00 +17°C° 0 mm 3 m/s 738 mmHg 95%
20:00 +16°C° 0 mm 3 m/s 738 mmHg 96%
21:00 +16°C° 0 mm 2 m/s 738 mmHg 96%
22:00 +16°C° 0 mm 2 m/s 739 mmHg 96%
23:00 +16°C° 0 mm 2 m/s 739 mmHg 96%

3 Agosto, Terça-feira

Tempo Temperatura Precipitação Vento Pressão Humidade
00:00 +15°C° 0.1 mm 2 m/s 739 mmHg 96%
01:00 +15°C° 0.1 mm 2 m/s 739 mmHg 97%
02:00 +15°C° 0.1 mm 2 m/s 739 mmHg 97%
03:00 +15°C° 0.1 mm 2 m/s 740 mmHg 97%
04:00 +15°C° 0.1 mm 2 m/s 740 mmHg 97%
05:00 +15°C° 0.1 mm 2 m/s 740 mmHg 97%
06:00 +14°C° 0.1 mm 3 m/s 740 mmHg 94%
07:00 +16°C° 0.1 mm 3 m/s 741 mmHg 91%
08:00 +16°C° 0.1 mm 3 m/s 741 mmHg 88%
09:00 +18°C° 0.1 mm 3 m/s 741 mmHg 78%
10:00 +19°C° 0.1 mm 4 m/s 742 mmHg 68%
11:00 +21°C° 0.1 mm 4 m/s 742 mmHg 58%
12:00 +21°C° 0.2 mm 4 m/s 742 mmHg 58%
13:00 +21°C° 0.2 mm 4 m/s 742 mmHg 59%
14:00 +21°C° 0.2 mm 4 m/s 742 mmHg 59%
15:00 +21°C° 0.2 mm 4 m/s 743 mmHg 62%
16:00 +20°C° 0.2 mm 3 m/s 743 mmHg 65%
17:00 +20°C° 0.2 mm 3 m/s 743 mmHg 67%
18:00 +18°C° 0.3 mm 3 m/s 743 mmHg 76%
19:00 +17°C° 0.3 mm 2 m/s 744 mmHg 84%
20:00 +15°C° 0.3 mm 2 m/s 744 mmHg 93%
21:00 +14°C° 0 mm 2 m/s 744 mmHg 94%
22:00 +14°C° 0 mm 2 m/s 745 mmHg 95%
23:00 +13°C° 0 mm 1 m/s 745 mmHg 95%

4 Agosto, Quarta-feira

Tempo Temperatura Precipitação Vento Pressão Humidade
00:00 +13°C° 0 mm 1 m/s 745 mmHg 95%
01:00 +13°C° 0 mm 1 m/s 746 mmHg 96%
02:00 +12°C° 0 mm 1 m/s 746 mmHg 96%
03:00 +12°C° 0 mm 1 m/s 746 mmHg 96%
04:00 +12°C° 0 mm 1 m/s 747 mmHg 95%
05:00 +12°C° 0 mm 1 m/s 747 mmHg 95%
06:00 +14°C° 0 mm 1 m/s 747 mmHg 89%
07:00 +15°C° 0 mm 1 m/s 748 mmHg 82%
08:00 +18°C° 0 mm 1 m/s 748 mmHg 76%
09:00 +20°C° 0 mm 1 m/s 748 mmHg 65%
10:00 +20°C° 0 mm 0 m/s 748 mmHg 55%
11:00 +22°C° 0 mm 0 m/s 748 mmHg 44%
12:00 +22°C° 0 mm 0 m/s 748 mmHg 46%
13:00 +21°C° 0 mm 0 m/s 748 mmHg 48%
14:00 +21°C° 0 mm 0 m/s 748 mmHg 50%
15:00 +22°C° 0 mm 1 m/s 748 mmHg 52%
16:00 +22°C° 0 mm 1 m/s 748 mmHg 54%
17:00 +22°C° 0 mm 1 m/s 748 mmHg 56%
18:00 +20°C° 0 mm 1 m/s 748 mmHg 60%
19:00 +19°C° 0 mm 1 m/s 749 mmHg 63%
20:00 +18°C° 0 mm 1 m/s 749 mmHg 67%
21:00 +16°C° 0 mm 1 m/s 749 mmHg 70%
22:00 +15°C° 0 mm 1 m/s 749 mmHg 72%
23:00 +14°C° 0 mm 1 m/s 749 mmHg 75%

5 Agosto, Quinta-feira

Tempo Temperatura Precipitação Vento Pressão Humidade
00:00 +14°C° 0 mm 1 m/s 749 mmHg 76%
01:00 +13°C° 0 mm 2 m/s 749 mmHg 78%
02:00 +13°C° 0 mm 2 m/s 749 mmHg 79%
03:00 +13°C° 0 mm 2 m/s 749 mmHg 79%
04:00 +12°C° 0 mm 2 m/s 749 mmHg 79%
05:00 +12°C° 0 mm 2 m/s 748 mmHg 79%
06:00 +15°C° 0 mm 2 m/s 748 mmHg 71%
07:00 +17°C° 0 mm 3 m/s 748 mmHg 63%
08:00 +19°C° 0 mm 3 m/s 748 mmHg 54%
09:00 +21°C° 0 mm 3 m/s 748 mmHg 50%
10:00 +22°C° 0 mm 3 m/s 748 mmHg 46%
11:00 +25°C° 0 mm 3 m/s 747 mmHg 42%
12:00 +25°C° 0 mm 3 m/s 747 mmHg 42%
13:00 +25°C° 0 mm 3 m/s 747 mmHg 43%
14:00 +25°C° 0 mm 3 m/s 746 mmHg 43%
15:00 +22°C° 0 mm 3 m/s 746 mmHg 53%
16:00 +21°C° 0 mm 3 m/s 746 mmHg 62%
17:00 +19°C° 0 mm 3 m/s 746 mmHg 72%
18:00 +18°C° 0.5 mm 3 m/s 746 mmHg 80%
19:00 +17°C° 0.5 mm 3 m/s 746 mmHg 88%
20:00 +16°C° 0.5 mm 3 m/s 746 mmHg 96%
21:00 +16°C° 1.2 mm 3 m/s 745 mmHg 97%
22:00 +16°C° 1.2 mm 3 m/s 745 mmHg 97%
23:00 +16°C° 1.2 mm 3 m/s 745 mmHg 97%
Mostrar mais

Necessitamos do seu Consentimento

A Meteoprog e os seus Fornecedores de Serviços podem armazenar e aceder a dados pessoais como cookies, identificadores do dispositivo ou outras tecnologias semelhantes existentes no seu dispositivo e processar estes dados para personalizar conteúdos e anúncios, assim como funcionalidades nas redes sociais e análise de tráfego.

  • Armazenar e/ou aceder a informações no seu dispositivo

    Os cookies, identificadores do dispositivo ou outras informações podem ser armazenados ou acedidos no seu dispositivo, para os fins acima indicados.

  • Anúncios e conteúdos personalizados, medição de anúncios e conteúdos, dados sobre o público-alvo e desenvolvimento de produtos

    Os anúncios e os conteúdos podem ser personalizados com base num perfil. Podem ser adicionados dados adicionais para uma maior personalização dos anúncios e dos conteúdos. A eficácia dos anúncios e dos conteúdos pode ser medida. Podem ser obtidas informações sobre o público que visualizou os anúncios e os conteúdos. Estes dados podem ser usados para desenvolver ou melhorar sistemas, softwares ou a experiência do utilizador.

Ao clicar em "Eu concordo”, permitirá o uso de cookies, identificadores do dispositivo e web beacons mencionados ou outras tecnologias semelhantes. As configurações do navegador do seu dispositivo podem ser alteradas.

Para certos fins, podem ser invocados interesses legítimos ao invés de consentimento. Pode ler mais informação sobre este assunto na nossa Política de Privacidade e Cookies.